Terminal Aerodrome Forecast
Issued by NWS Denver/Boulder, CO

Home | Current Version | Previous Version | Text Only | Print | Product List | Glossary On
Versions: 1 2 3 4 5 6 7 8 9 10 11 12 13 14 15 16 17 18 19 20 21 22 23 24 25 26 27 28 29 30 31 32 33 34 35 36 37 38 39 40 41 42 43 44 45 46 47 48 49 50
545
FTUS45 KBOU 051506 AAB
TAFDEN
TAF AMD
KDEN 051506Z 0515/0618 32003KT P6SM FEW100 SCT220
     FM051600 26008KT P6SM SCT100 SCT200
     FM051700 28020G35KT P6SM SCT100 SCT200
     FM052200 32015G25KT P6SM SCT090 SCT200
     FM060200 01014G22KT P6SM SCT080 BKN120
     FM060400 06012KT P6SM SCT070 BKN110
     FM060600 09007KT P6SM SCT060 BKN100=

USA.gov is the U.S. government's official web portal to all federal, state and local government web resources and services.